Location: Peterborough
(44.3091°N, 78.3197°W)
Time: 04:49:45
(UTC-04:00)

S-56A Canister/Altair - Pass Details

Date: 26 March 2023
Orbit: 639 x 2492 km, 38.9° (Epoch: 08 June)

Event Time Altitude Azimuth Distance (km) Brightness Sun altitude
Rises 19:16:47 0° 225° (SW) 4,681 12.3 2.1°
Reaches altitude 10° 19:19:40 10° 220° (SW) 3,929 11.8 1.5°
Maximum altitude 19:29:57 48° 150° (SSE) 2,611 10.0 -0.3°
Drops below altitude 10° 19:43:29 10° 83° (E) 5,113 11.1 -2.7°
Enters shadow 19:47:24 - 79° (E) 6,069 11.5 -3.4°
Sets 19:47:49 0° 79° (ENE) 6,170 - -3.5°
